• In Germany
  • List of Countries
  • For 7 days
  • Water Temperature
  • Satellite Maps
  • Weather Map
  • Weather Widgets
  • user-avatar
    Login

    Hourly Weather Detmold

    Today, 22 November, Wednesday

    Time Temperature Precipitation Wind Pressure Humidity
    00:00 +8°C° 0 mm 6 mps 744 mmHg 87%
    01:00 +7°C° 0 mm 6 mps 744 mmHg 87%
    02:00 +7°C° 0.1 mm 6 mps 743 mmHg 87%
    03:00 +8°C° 0.1 mm 6 mps 743 mmHg 87%
    04:00 +8°C° 0.1 mm 6 mps 743 mmHg 87%
    05:00 +8°C° 0.2 mm 7 mps 742 mmHg 86%
    06:00 +8°C° 0.2 mm 7 mps 742 mmHg 86%
    07:00 +8°C° 0.2 mm 7 mps 742 mmHg 86%
    08:00 +8°C° 0 mm 7 mps 742 mmHg 85%
    09:00 +8°C° 0 mm 7 mps 743 mmHg 85%
    10:00 +8°C° 0 mm 7 mps 743 mmHg 84%
    11:00 +9°C° 0 mm 6 mps 743 mmHg 81%
    12:00 +9°C° 0 mm 6 mps 743 mmHg 77%
    13:00 +10°C° 0 mm 6 mps 743 mmHg 74%
    14:00 +9°C° 0 mm 5 mps 743 mmHg 73%
    15:00 +9°C° 0 mm 5 mps 743 mmHg 73%
    16:00 +10°C° 0 mm 4 mps 742 mmHg 72%
    17:00 +8°C° 0 mm 4 mps 742 mmHg 72%
    18:00 +8°C° 0 mm 4 mps 742 mmHg 73%
    19:00 +7°C° 0 mm 5 mps 742 mmHg 73%
    20:00 +7°C° 0 mm 5 mps 742 mmHg 71%
    21:00 +7°C° 0 mm 5 mps 741 mmHg 69%
    22:00 +7°C° 0 mm 5 mps 741 mmHg 67%
    23:00 +7°C° 0 mm 5 mps 741 mmHg 66%

    Tomorrow, 23 November, Thursday

    Time Temperature Precipitation Wind Pressure Humidity
    00:00 +7°C° 0 mm 5 mps 741 mmHg 66%
    01:00 +7°C° 0 mm 5 mps 740 mmHg 65%
    02:00 +7°C° 0 mm 6 mps 740 mmHg 65%
    03:00 +7°C° 0 mm 6 mps 740 mmHg 66%
    04:00 +7°C° 0 mm 6 mps 739 mmHg 66%
    05:00 +7°C° 0 mm 6 mps 739 mmHg 68%
    06:00 +6°C° 0 mm 7 mps 739 mmHg 69%
    07:00 +8°C° 0 mm 7 mps 739 mmHg 70%
    08:00 +9°C° 0 mm 7 mps 739 mmHg 70%
    09:00 +10°C° 0 mm 8 mps 739 mmHg 70%
    10:00 +11°C° 0 mm 8 mps 740 mmHg 70%
    11:00 +11°C° 0 mm 8 mps 740 mmHg 68%
    12:00 +12°C° 0 mm 9 mps 740 mmHg 66%
    13:00 +13°C° 0 mm 9 mps 740 mmHg 64%
    14:00 +13°C° 0 mm 8 mps 740 mmHg 66%
    15:00 +12°C° 0 mm 8 mps 740 mmHg 68%
    16:00 +12°C° 0 mm 7 mps 741 mmHg 70%
    17:00 +12°C° 0.2 mm 7 mps 742 mmHg 73%
    18:00 +11°C° 0.2 mm 6 mps 742 mmHg 76%
    19:00 +11°C° 0.2 mm 6 mps 743 mmHg 79%
    20:00 +10°C° 0.1 mm 5 mps 744 mmHg 80%
    21:00 +11°C° 0.1 mm 4 mps 744 mmHg 80%
    22:00 +10°C° 0.1 mm 4 mps 745 mmHg 81%
    23:00 +10°C° 0 mm 3 mps 745 mmHg 82%

    Day after tomorrow, 24 November, Friday

    Time Temperature Precipitation Wind Pressure Humidity
    00:00 +10°C° 0 mm 3 mps 745 mmHg 84%
    01:00 +10°C° 0 mm 3 mps 745 mmHg 85%
    02:00 +10°C° 0.1 mm 4 mps 744 mmHg 84%
    03:00 +10°C° 0.1 mm 6 mps 744 mmHg 83%
    04:00 +11°C° 0.1 mm 7 mps 743 mmHg 82%
    05:00 +10°C° 0 mm 6 mps 743 mmHg 82%
    06:00 +10°C° 0 mm 6 mps 743 mmHg 82%
    07:00 +10°C° 0 mm 6 mps 744 mmHg 83%
    08:00 +10°C° 0.5 mm 6 mps 744 mmHg 84%
    09:00 +10°C° 0.5 mm 6 mps 744 mmHg 85%
    10:00 +10°C° 0.5 mm 5 mps 744 mmHg 86%
    11:00 +10°C° 0.5 mm 5 mps 744 mmHg 86%
    12:00 +10°C° 0.5 mm 5 mps 744 mmHg 85%
    13:00 +10°C° 0.5 mm 5 mps 744 mmHg 84%
    14:00 +11°C° 0.5 mm 4 mps 744 mmHg 86%
    15:00 +10°C° 0.5 mm 4 mps 744 mmHg 88%
    16:00 +10°C° 0.5 mm 3 mps 744 mmHg 90%
    17:00 +10°C° 1.1 mm 3 mps 744 mmHg 91%
    18:00 +9°C° 1.1 mm 3 mps 744 mmHg 91%
    19:00 +9°C° 1.1 mm 3 mps 744 mmHg 92%
    20:00 +10°C° 0.2 mm 3 mps 743 mmHg 91%
    21:00 +10°C° 0.2 mm 3 mps 743 mmHg 90%
    22:00 +10°C° 0.2 mm 4 mps 742 mmHg 89%
    23:00 +11°C° 0.1 mm 4 mps 742 mmHg 89%

    25 November, Saturday

    Time Temperature Precipitation Wind Pressure Humidity
    00:00 +10°C° 0.1 mm 5 mps 741 mmHg 88%
    01:00 +10°C° 0.1 mm 5 mps 740 mmHg 88%
    02:00 +10°C° 0.2 mm 5 mps 739 mmHg 87%
    03:00 +10°C° 0.2 mm 5 mps 738 mmHg 86%
    04:00 +10°C° 0.2 mm 6 mps 738 mmHg 85%
    05:00 +10°C° 0.4 mm 6 mps 737 mmHg 85%
    06:00 +10°C° 0.4 mm 6 mps 736 mmHg 85%
    07:00 +10°C° 0.4 mm 6 mps 735 mmHg 85%
    08:00 +9°C° 0.8 mm 7 mps 736 mmHg 81%
    09:00 +7°C° 0.8 mm 9 mps 736 mmHg 77%
    10:00 +6°C° 0.8 mm 10 mps 736 mmHg 73%
    11:00 +5°C° 0.1 mm 10 mps 738 mmHg 72%
    12:00 +5°C° 0.1 mm 10 mps 739 mmHg 70%
    13:00 +3°C° 0.1 mm 10 mps 740 mmHg 69%
    14:00 +3°C° 0.1 mm 10 mps 741 mmHg 67%
    15:00 +2°C° 0.1 mm 9 mps 742 mmHg 66%
    16:00 +1°C° 0.1 mm 8 mps 743 mmHg 64%
    17:00 +1°C° 0 mm 8 mps 744 mmHg 65%
    18:00 +1°C° 0 mm 8 mps 744 mmHg 67%
    19:00 0°C° 0 mm 7 mps 745 mmHg 68%
    20:00 0°C° 0 mm 7 mps 745 mmHg 68%
    21:00 0°C° 0 mm 7 mps 745 mmHg 68%
    22:00 0°C° 0 mm 7 mps 745 mmHg 68%
    23:00 0°C° 0 mm 7 mps 745 mmHg 69%

    26 November, Sunday

    Time Temperature Precipitation Wind Pressure Humidity
    00:00 0°C° 0 mm 7 mps 746 mmHg 71%
    01:00 0°C° 0 mm 7 mps 746 mmHg 72%
    02:00 0°C° 0 mm 7 mps 746 mmHg 73%
    03:00 -1°C° 0 mm 7 mps 746 mmHg 73%
    04:00 -1°C° 0 mm 7 mps 745 mmHg 74%
    05:00 -1°C° 0.1 mm 7 mps 745 mmHg 72%
    06:00 -1°C° 0.1 mm 8 mps 745 mmHg 71%
    07:00 0°C° 0.1 mm 8 mps 745 mmHg 69%
    08:00 0°C° 0.6 mm 9 mps 745 mmHg 72%
    09:00 0°C° 0.6 mm 9 mps 745 mmHg 74%
    10:00 +1°C° 0.6 mm 9 mps 745 mmHg 77%
    11:00 +1°C° 0.4 mm 9 mps 745 mmHg 77%
    12:00 +2°C° 0.4 mm 9 mps 746 mmHg 77%
    13:00 +2°C° 0.4 mm 9 mps 746 mmHg 77%
    14:00 +2°C° 0.3 mm 8 mps 746 mmHg 78%
    15:00 +2°C° 0.3 mm 8 mps 747 mmHg 79%
    16:00 +3°C° 0.3 mm 7 mps 747 mmHg 79%
    17:00 +3°C° 0.2 mm 6 mps 747 mmHg 81%
    18:00 +2°C° 0.2 mm 6 mps 748 mmHg 82%
    19:00 +2°C° 0.2 mm 5 mps 748 mmHg 84%
    20:00 +2°C° 0.7 mm 5 mps 748 mmHg 84%
    21:00 +2°C° 0.7 mm 5 mps 748 mmHg 85%
    22:00 +2°C° 0.7 mm 5 mps 748 mmHg 86%
    23:00 +1°C° 0.3 mm 5 mps 748 mmHg 85%

    27 November, Monday

    Time Temperature Precipitation Wind Pressure Humidity
    00:00 +1°C° 0.3 mm 5 mps 748 mmHg 83%
    01:00 +1°C° 0.3 mm 5 mps 749 mmHg 82%
    02:00 0°C° 0 mm 5 mps 749 mmHg 81%
    03:00 0°C° 0 mm 5 mps 749 mmHg 81%
    04:00 0°C° 0 mm 5 mps 750 mmHg 81%
    05:00 0°C° 0 mm 5 mps 750 mmHg 81%
    06:00 0°C° 0 mm 5 mps 751 mmHg 82%
    07:00 0°C° 0 mm 5 mps 751 mmHg 83%
    08:00 0°C° 0 mm 5 mps 751 mmHg 82%
    09:00 -1°C° 0 mm 6 mps 752 mmHg 80%
    10:00 +1°C° 0 mm 6 mps 752 mmHg 79%
    11:00 +1°C° 0 mm 6 mps 752 mmHg 77%
    12:00 +2°C° 0 mm 6 mps 752 mmHg 75%
    13:00 +3°C° 0 mm 6 mps 752 mmHg 74%
    14:00 +2°C° 0 mm 5 mps 751 mmHg 75%
    15:00 +2°C° 0 mm 5 mps 751 mmHg 77%
    16:00 +1°C° 0 mm 4 mps 750 mmHg 78%
    17:00 +1°C° 0 mm 5 mps 750 mmHg 79%
    18:00 +1°C° 0 mm 5 mps 749 mmHg 80%
    19:00 +1°C° 0 mm 6 mps 749 mmHg 81%
    20:00 +1°C° 0 mm 6 mps 748 mmHg 81%
    21:00 +1°C° 0 mm 6 mps 748 mmHg 81%
    22:00 +1°C° 0 mm 6 mps 747 mmHg 81%
    23:00 +1°C° 0 mm 6 mps 746 mmHg 81%
    Show more